Overview Statistics Trail Chart Weather Telemetry Raw packets
 

This is the latest recevied weather packets stored in our database for station/object IZ4MEH-10. If no packets are shown the sender has not sent any weather packets the latest 10 day(s).

<< 1 2 3 4 5 6 7 >>
Time Temp. Humidity Pressure Rain* Wind** Luminosity Snow
1788362570 35° C 36% 1013.4 hPa - - - -
1788358976 35.56° C 36% 1013.7 hPa - - - -
1788355366 35° C 37% 1014.2 hPa - - - -
1788348163 34.44° C 43% 1015.7 hPa - - - -
1788346362 36.67° C 39% 1016 hPa - - - -
1788342760 38.33° C 36% 1016.6 hPa - - - -
1788340967 42.78° C 31% 1016.9 hPa - - - -
1788339167 41.67° C 31% 1016.9 hPa - - - -
1788337358 41.67° C 32% 1016.8 hPa - - - -
1788335557 40.56° C 33% 1016.8 hPa - - - -
1788333775 39.44° C 36% 1016.7 hPa - - - -
1788331963 35° C 44% 1016.7 hPa - - - -
1788330162 29.44° C 57% 1016.6 hPa - - - -
1788324752 23.89° C 74% 1015.9 hPa - - - -
1788322959 23.89° C 74% 1015.9 hPa - - - -
1788321158 24.44° C 71% 1015.9 hPa - - - -
1788299540 26.11° C 75% 1015.3 hPa - - - -
1788295939 26.11° C 76% 1015.3 hPa - - - -
1788294138 26.67° C 78% 1015.3 hPa - - - -
1788292345 26.67° C 75% 1015 hPa - - - -
1788288735 26.67° C 79% 1014.8 hPa - - - -
1788283341 31.67° C 47% 1013.2 hPa - - - -
1788281532 32.78° C 46% 1013 hPa - - - -
1788274336 34.44° C 41% 1013.3 hPa - - - -
1788268951 34.44° C 42% 1013.9 hPa - - - -

* Rain since midnight (hover to see other rain measurements)
** Current wind speed in m/s (hover to see current wind gust speed)